Location: Beddau
(51.5575°N, 3.3561°W)
Time: 12:45:27
(UTC+00:00)

Cosmos 1500 - Pass Details

Date: 03 March 2021
Orbit: 499 x 517 km, 82.5° (Epoch: 16 April)

Event Time Altitude Azimuth Distance (km) Brightness Sun altitude
Rises 18:48:25 0° 166° (SSE) 2,581 6.6 -8.7°
Reaches altitude 10° 18:50:39 10° 157° (SSE) 1,703 5.6 -9.0°
Maximum altitude 18:54:01 33° 92° (E) 862 3.8 -9.6°
Drops below altitude 10° 18:57:24 10° 27° (NNE) 1,718 5.6 -10.1°
Sets 18:59:40 0° 18° (NNE) 2,609 6.6 -10.4°
